| time (UTC) | temp F | wind direction | speed MPH | gust MPH | rain 1hr in | rain 24hr in | rain mn in | humidity % | barometer mb |
| 20260904162411 | 83 | 150 | 3.0 | 7.0 | 0.00 | 0.00 | 0.00 | 77 | 1017.2 |
| 20260904161323 | 83 | 136 | 2.0 | 6.0 | 0.00 | 0.00 | 0.00 | 78 | 1017.3 |
| 20260904160351 | 82 | 173 | 2.0 | 5.0 | 0.00 | 0.00 | 0.00 | 80 | 1017.2 |
| 20260904155421 | 82 | 203 | 1.0 | 4.0 | 0.00 | 0.00 | 0.00 | 81 | 1017.3 |
| 20260904154338 | 82 | 189 | 1.0 | 4.0 | 0.00 | 0.00 | 0.00 | 81 | 1017.3 |
| 20260904153353 | 81 | 244 | 2.0 | 4.0 | 0.00 | 0.00 | 0.00 | 82 | 1017.2 |
| 20260904152415 | 81 | 174 | 3.0 | 5.0 | 0.00 | 0.00 | 0.00 | 82 | 1017.1 |
| 20260904143324 | 80 | 148 | 3.0 | 7.0 | 0.00 | 0.00 | 0.00 | 86 | 1016.9 |
| 20260904142354 | 80 | 139 | 2.0 | 8.0 | 0.00 | 0.00 | 0.00 | 87 | 1016.7 |
| 20260904141413 | 79 | 129 | 3.0 | 8.0 | 0.00 | 0.00 | 0.00 | 87 | 1016.8 |
| 20260904140419 | 79 | 128 | 3.0 | 6.0 | 0.00 | 0.00 | 0.00 | 87 | 1016.7 |
| 20260904135415 | 79 | 141 | 3.0 | 7.0 | 0.00 | 0.00 | 0.00 | 88 | 1016.6 |
| 20260904134413 | 79 | 132 | 3.0 | 12.0 | 0.00 | 0.00 | 0.00 | 88 | 1016.5 |
| 20260904133333 | 79 | 159 | 4.0 | 8.0 | 0.00 | 0.00 | 0.00 | 88 | 1016.4 |
| 20260904132338 | 78 | 144 | 2.0 | 6.0 | 0.00 | 0.00 | 0.00 | 88 | 1016.2 |
| 20260904131407 | 78 | 157 | 4.0 | 6.0 | 0.00 | 0.00 | 0.00 | 89 | 1016.3 |
| 20260904130323 | 78 | 152 | 4.0 | 8.0 | 0.00 | 0.00 | 0.00 | 89 | 1016.3 |
| 20260904124351 | 78 | 146 | 3.0 | 6.0 | 0.00 | 0.00 | 0.00 | 88 | 1015.9 |
| 20260904123420 | 78 | 146 | 3.0 | 6.0 | 0.00 | 0.00 | 0.00 | 88 | 1015.9 |
| 20260904122336 | 78 | 140 | 3.0 | 8.0 | 0.00 | 0.00 | 0.00 | 87 | 1015.8 |
| 20260904121405 | 79 | 119 | 2.0 | 5.0 | 0.00 | 0.00 | 0.00 | 87 | 1015.9 |
| 20260904120326 | 79 | 165 | 2.0 | 5.0 | 0.00 | 0.00 | 0.00 | 86 | 1015.5 |
| 20260904114328 | 79 | 190 | 4.0 | 8.0 | 0.00 | 0.00 | 0.00 | 86 | 1015.3 |
| 20260904112345 | 79 | 184 | 2.0 | 5.0 | 0.00 | 0.00 | 0.00 | 86 | 1015.0 |
| 20260904104343 | 78 | 191 | 1.0 | 6.0 | 0.00 | 0.00 | 0.00 | 86 | 1015.0 |
| 20260904103350 | 78 | 233 | 1.0 | 8.0 | 0.00 | 0.00 | 0.00 | 86 | 1014.9 |
| 20260904102419 | 78 | 175 | 2.0 | 7.0 | 0.00 | 0.00 | 0.00 | 86 | 1014.9 |
| 20260904101342 | 78 | 165 | 1.0 | 5.0 | 0.00 | 0.00 | 0.00 | 87 | 1014.9 |
| 20260904095324 | 78 | 197 | 1.0 | 6.0 | 0.00 | 0.00 | 0.00 | 87 | 1014.7 |
| 20260904092352 | 77 | 178 | 0.0 | 3.0 | 0.00 | 0.00 | 0.00 | 87 | 1014.8 |
| 20260904091323 | 78 | 178 | 0.0 | 1.0 | 0.00 | 0.00 | 0.00 | 87 | 1014.7 |
| 20260904085354 | 78 | 178 | 0.0 | 1.0 | 0.00 | 0.00 | 0.00 | 86 | 1014.7 |
| 20260904084419 | 78 | 178 | 0.0 | 1.0 | 0.00 | 0.00 | 0.00 | 86 | 1014.7 |
| 20260904082341 | 79 | 178 | 0.0 | 4.0 | 0.00 | 0.00 | 0.00 | 85 | 1014.8 |
| 20260904081416 | 79 | 178 | 1.0 | 3.0 | 0.00 | 0.00 | 0.00 | 84 | 1014.9 |
| 20260904080326 | 79 | 178 | 1.0 | 6.0 | 0.00 | 0.00 | 0.00 | 84 | 1014.9 |
| 20260904075344 | 79 | 156 | 1.0 | 6.0 | 0.00 | 0.00 | 0.00 | 83 | 1014.9 |
| 20260904074410 | 79 | 199 | 1.0 | 7.0 | 0.00 | 0.00 | 0.00 | 83 | 1015.0 |
| 20260904073334 | 80 | 157 | 3.0 | 9.0 | 0.00 | 0.00 | 0.00 | 83 | 1015.0 |
| 20260904072349 | 79 | 176 | 2.0 | 7.0 | 0.00 | 0.00 | 0.00 | 83 | 1015.1 |
| 20260904071418 | 79 | 161 | 2.0 | 6.0 | 0.00 | 0.00 | 0.00 | 83 | 1015.3 |
| 20260904070344 | 80 | 191 | 3.0 | 7.0 | 0.00 | 0.00 | 0.00 | 83 | 1015.3 |
| 20260904065335 | 80 | 188 | 2.0 | 6.0 | 0.00 | 0.00 | 0.00 | 83 | 1015.4 |
| 20260904064349 | 80 | 174 | 2.0 | 7.0 | 0.00 | 0.00 | 0.00 | 83 | 1015.6 |
| 20260904063334 | 80 | 167 | 2.0 | 6.0 | 0.00 | 0.00 | 0.00 | 83 | 1015.6 |
| 20260904062339 | 80 | 188 | 4.0 | 8.0 | 0.00 | 0.00 | 0.00 | 83 | 1015.5 |
| 20260904061324 | 80 | 171 | 3.0 | 9.0 | 0.00 | 0.00 | 0.00 | 82 | 1015.5 |
| 20260904060337 | 80 | 164 | 3.0 | 8.0 | 0.00 | 0.00 | 0.00 | 82 | 1015.6 |
| 20260904055342 | 80 | 67 | 3.0 | 9.0 | 0.00 | 0.00 | 0.00 | 81 | 1015.5 |
| 20260904054327 | 81 | 128 | 4.0 | 11.0 | 0.00 | 0.00 | 0.00 | 80 | 1015.4 |
| 20260904053341 | 81 | 141 | 4.0 | 11.0 | 0.00 | 0.00 | 0.00 | 79 | 1015.4 |
| 20260904052327 | 81 | 199 | 5.0 | 10.0 | 0.00 | 0.00 | 0.00 | 79 | 1015.4 |
| 20260904051332 | 81 | 185 | 5.0 | 11.0 | 0.00 | 0.00 | 0.00 | 78 | 1015.1 |
| 20260904050328 | 82 | 162 | 6.0 | 14.0 | 0.00 | 0.00 | 0.00 | 77 | 1015.1 |
| 20260904045404 | 82 | 155 | 4.0 | 15.0 | 0.00 | 0.00 | 0.00 | 77 | 1015.1 |
| 20260904044413 | 82 | 186 | 7.0 | 13.0 | 0.00 | 0.00 | 0.00 | 76 | 1015.1 |
| 20260904043336 | 82 | 152 | 5.0 | 12.0 | 0.00 | 0.00 | 0.00 | 75 | 1015.1 |
| 20260904042348 | 83 | 117 | 5.0 | 11.0 | 0.00 | 0.00 | 0.00 | 74 | 1015.1 |
| 20260904041354 | 83 | 165 | 6.0 | 13.0 | 0.00 | 0.00 | 0.00 | 73 | 1015.1 |
| 20260904040408 | 83 | 157 | 6.0 | 10.0 | 0.00 | 0.00 | 0.00 | 71 | 1015.2 |
| 20260904035323 | 84 | 175 | 4.0 | 10.0 | 0.00 | 0.00 | 0.00 | 70 | 1015.1 |
| 20260904034350 | 84 | 154 | 5.0 | 15.0 | 0.00 | 0.00 | 0.00 | 68 | 1015.0 |
| 20260904033411 | 84 | 173 | 5.0 | 10.0 | 0.00 | 0.00 | 0.00 | 67 | 1014.7 |
| 20260904032334 | 85 | 138 | 6.0 | 14.0 | 0.00 | 0.00 | 0.00 | 66 | 1014.6 |
| 20260904031407 | 85 | 121 | 5.0 | 9.0 | 0.00 | 0.00 | 0.00 | 66 | 1014.6 |
| 20260904030347 | 85 | 127 | 4.0 | 11.0 | 0.00 | 0.00 | 0.00 | 67 | 1014.4 |
| 20260904025353 | 85 | 121 | 6.0 | 13.0 | 0.00 | 0.00 | 0.00 | 66 | 1014.4 |
| 20260904024327 | 86 | 133 | 4.0 | 10.0 | 0.00 | 0.00 | 0.00 | 66 | 1014.2 |
| 20260904022328 | 86 | 121 | 4.0 | 10.0 | 0.00 | 0.00 | 0.00 | 65 | 1014.0 |
| 20260904021356 | 86 | 133 | 6.0 | 10.0 | 0.00 | 0.00 | 0.00 | 64 | 1013.7 |
| 20260904020416 | 86 | 144 | 4.0 | 9.0 | 0.00 | 0.00 | 0.00 | 63 | 1013.8 |
| 20260904014336 | 86 | 112 | 3.0 | 7.0 | 0.00 | 0.00 | 0.00 | 64 | 1013.4 |
| 20260904013344 | 86 | 115 | 4.0 | 9.0 | 0.00 | 0.00 | 0.00 | 65 | 1013.2 |
| 20260904012415 | 86 | 150 | 3.0 | 10.0 | 0.00 | 0.00 | 0.00 | 65 | 1013.2 |
| 20260904011334 | 87 | 142 | 6.0 | 13.0 | 0.00 | 0.00 | 0.00 | 65 | 1012.9 |
| 20260904010404 | 87 | 142 | 5.0 | 11.0 | 0.00 | 0.00 | 0.00 | 64 | 1012.9 |
| 20260904005325 | 87 | 111 | 7.0 | 14.0 | 0.00 | 0.00 | 0.00 | 63 | 1012.9 |
| 20260904004401 | 88 | 121 | 4.0 | 15.0 | 0.00 | 0.00 | 0.00 | 62 | 1012.7 |
| 20260904003325 | 89 | 94 | 6.0 | 19.0 | 0.00 | 0.00 | 0.00 | 59 | 1012.7 |
| 20260903233345 | 94 | 59 | 2.0 | 12.0 | 0.00 | 0.00 | 0.00 | 47 | 1012.1 |
| 20260903232352 | 94 | 98 | 5.0 | 11.0 | 0.00 | 0.00 | 0.00 | 46 | 1012.1 |
| 20260903231422 | 94 | 136 | 7.0 | 13.0 | 0.00 | 0.00 | 0.00 | 46 | 1012.0 |
| 20260903230336 | 94 | 138 | 7.0 | 12.0 | 0.00 | 0.00 | 0.00 | 48 | 1011.9 |
| 20260903225330 | 94 | 94 | 5.0 | 16.0 | 0.00 | 0.00 | 0.00 | 49 | 1011.9 |
| 20260903224405 | 95 | 85 | 7.0 | 12.0 | 0.00 | 0.00 | 0.00 | 48 | 1011.8 |
| 20260903223335 | 94 | 122 | 4.0 | 17.0 | 0.00 | 0.00 | 0.00 | 49 | 1011.8 |
| 20260903222354 | 97 | 135 | 6.0 | 15.0 | 0.00 | 0.00 | 0.00 | 45 | 1011.9 |
| 20260903221421 | 98 | 169 | 5.0 | 10.0 | 0.00 | 0.00 | 0.00 | 42 | 1011.6 |
| 20260903215347 | 99 | 107 | 7.0 | 12.0 | 0.00 | 0.00 | 0.00 | 41 | 1011.7 |
| 20260903214407 | 99 | 88 | 3.0 | 7.0 | 0.00 | 0.00 | 0.00 | 41 | 1011.7 |
| 20260903213337 | 99 | 232 | 3.0 | 9.0 | 0.00 | 0.00 | 0.00 | 41 | 1011.9 |
| 20260903212403 | 97 | 154 | 4.0 | 8.0 | 0.00 | 0.00 | 0.00 | 43 | 1012.0 |
| 20260903211327 | 96 | 131 | 1.0 | 7.0 | 0.00 | 0.00 | 0.00 | 44 | 1012.1 |
| 20260903210409 | 96 | 68 | 3.0 | 8.0 | 0.00 | 0.00 | 0.00 | 45 | 1012.3 |
| 20260903205343 | 97 | 126 | 3.0 | 9.0 | 0.00 | 0.00 | 0.00 | 46 | 1012.5 |
| 20260903204418 | 98 | 169 | 4.0 | 10.0 | 0.00 | 0.00 | 0.00 | 45 | 1012.5 |
| 20260903203338 | 98 | 63 | 2.0 | 8.0 | 0.00 | 0.00 | 0.00 | 43 | 1012.7 |
| 20260903202414 | 98 | 173 | 3.0 | 6.0 | 0.00 | 0.00 | 0.00 | 44 | 1012.9 |
| 20260903200330 | 97 | 130 | 3.0 | 7.0 | 0.00 | 0.00 | 0.00 | 46 | 1013.1 |
| 20260903195336 | 97 | 195 | 3.0 | 11.0 | 0.00 | 0.00 | 0.00 | 45 | 1013.2 |
| 20260903194337 | 97 | 279 | 4.0 | 12.0 | 0.00 | 0.00 | 0.00 | 46 | 1013.3 |
| 20260903193408 | 96 | 184 | 4.0 | 11.0 | 0.00 | 0.00 | 0.00 | 47 | 1013.4 |
| 20260903192413 | 96 | 221 | 4.0 | 9.0 | 0.00 | 0.00 | 0.00 | 47 | 1013.6 |
| 20260903183331 | 94 | 265 | 4.0 | 9.0 | 0.00 | 0.00 | 0.00 | 52 | 1014.7 |
| 20260903182403 | 94 | 141 | 5.0 | 10.0 | 0.00 | 0.00 | 0.00 | 52 | 1014.8 |
| 20260903181344 | 93 | 157 | 2.0 | 9.0 | 0.00 | 0.00 | 0.00 | 54 | 1014.9 |
| 20260903180419 | 93 | 190 | 4.0 | 10.0 | 0.00 | 0.00 | 0.00 | 54 | 1015.1 |
| 20260903175331 | 92 | 150 | 4.0 | 10.0 | 0.00 | 0.00 | 0.00 | 55 | 1015.1 |
| 20260903174351 | 91 | 162 | 5.0 | 10.0 | 0.00 | 0.00 | 0.00 | 58 | 1015.3 |
| 20260903173323 | 90 | 197 | 5.0 | 11.0 | 0.00 | 0.00 | 0.00 | 60 | 1015.4 |
| 20260903172330 | 90 | 169 | 5.0 | 12.0 | 0.00 | 0.00 | 0.00 | 60 | 1015.5 |
| 20260903171359 | 90 | 254 | 5.0 | 12.0 | 0.00 | 0.00 | 0.00 | 62 | 1015.8 |
| 20260903170329 | 90 | 173 | 5.0 | 10.0 | 0.00 | 0.00 | 0.00 | 61 | 1015.8 |
| 20260903165406 | 89 | 203 | 4.0 | 10.0 | 0.00 | 0.00 | 0.00 | 64 | 1015.9 |
| 20260903164334 | 88 | 167 | 3.0 | 7.0 | 0.00 | 0.00 | 0.00 | 66 | 1015.9 |